EHI
0 0 0 0 0 0 0 0 0 0 0 0 0 0 0 0 0 0 0 0 0 0 0 0 0 0 0 0 0 0 0 0 0 0 0 0 0 0 0 0 0 0 0 0
0 0 0 0 0 0 0 0 0 0 0 0 0 0 0 0 0 0 0 0 0 0 0 0 0 0 0 0 0 0 0 0 0 0 0 0 0 0 0 0 0 0 0 0
0 0 0 0 0 0 0 0 0 0 0 0 0 0 0 0 0 0 0 0 0 0 0 0 0 0 0 0 0 0 0 0 0 0 0 0 0 0 0 0 0 0 0 0
0 0 0 0 0 0 0 0 0 0 0 0 0 0 0 0 0 0 0 0 0 0 0 0 0 0 0 0 0 0 0 0 0 0 0 0 0 0 0 0 0 0 0 0
0 0 0 0 0 0 0 0 0 0 0 0 0 0 0 0 0 0 0 0 0 0 0 0 0 0 0 0 0 0 0 0 0 0 0 0 0 0 0 0 0 0 0 0
0 0 0 0 0 0 0 0 0 0 0 0 0 0 0 0 0 0 0 0 0 0 0 0 0 0 0 0 0 0 0 0 0 0 0 0 0 0 0 0 0 0 0 0
0 0 0 0 0 0 0 0 0 0 0 0 0 0 0 0 0 0 0 0 0 0 0 0 0 0 0 0 0 0 0 0 0 0 0 0 0 0 0 0 0 0 0 0
0 0 0 0 0 0 0 0 0 0 0 0 0 0 0 0 0 0 0 0 0 0 0 0 0 0 0 0 0 0 0 0 0 0 0 0 0 0 0 0 0 0 0 0
0 0 0 0 0 0 0 0 0 0 0 0 0 0 0 0 0 0 0 0 0 0 0 0 0 0 0 0 0 0 0 0 0 0 0 0 0 0 0 0 0 0 0 0
0 0 0 0 0 0 0 0 0 0 0 0 0 0 0 0 0 0 0 0 0 0 0 0 0 0 0 0 0 0 0 0 0 0 0 0 0 0 0 0 0 0 0 0
0 0 0 0 0 0 0 0 0 0 0 0 0 0 0 0 0 0 0 0 0 0 0 0 0 0 0 0 0 0 0 0 0 0 0 0 0 0 0 0 0 0 0 0
0 0 0 0 0 0 0 0 0 0 0 0 0 0 0 0 0 0 0 0 0 0 0 0 0 0 0 0 0 0 0 0 0 0 0 0 0 0 0 0 0 0 0 0
0 0 0 0 0 0 0 0 0 0 0 0 0 0 0 0 0 0 0 0 0 0 0 0 0 0 0 0 0 0 0 0 0 0 0 0 0 0 0 0 0 0 0 0
0 0 0 0 0 0 0 0 0 0 0 0 0 0 0 0 0 0 0 0 0 0 0 0 0 0 0 0 0 0 0 0 0 0 0 0 0 0 0 0 0 0 0 0
0 0 0 0 0 0 0 0 0 0 0 0 0 0 0 0 0 0 0 0 0 0 0 0 0 0 0 0 0 0 0 0 0 0 0 0 0 0 0 0 0 0 0 0
0 0 0 0 0 0 0 0 0 0 0 0 0 0 0 0 0 0 0 0 0 0 0 0 0 0 0 0 0 0 0 0 0 0 0 0 0 0 0 0 0 0 0 0
0 0 0 0 0 0 0 0 0 0 0 0 0 0 0 0 0 0 0 0 0 0 0 0 0 0 0 0 0 0 0 0 0 0 0 0 0 0 0 0 0 0 0 0
0 0 0 0 0 0 0 0 0 0 0 0 0 0 0 0 0 0 0 0 0 0 0 0 0 0 0 0 0 0 0 0 0 0 0 0 0 0 0 0 0 0 0 0
0 0 0 0 0 0 0 0 0 0 0 0 0 0 0 0 0 0 0 0 0 0 0 0 0 0 0 0 0 0 0 0 0 0 0 0 0 0 0 0 0 0 0 0
0 0 0 0 0 0 0 0 0 0 0 0 0 0 0 0 0 0 0 0 0 0 0 0 0 0 0 0 0 0 0 0 0 0 0 0 0 0 0 0 0 0 0 0
0 0 0 0 0 0 0 0 0 0 0 0 0 0 0 0 0 0 0 0 0 0 0 0 0 0 0 0 0 0 0 0 0 0 0 0 0 0 0 0 0 0 0 0
0 0 0 0 0 0 0 0 0 0 0 0 0 0 0 0 0 0 0 0 0 0 0 0 0 0 0 0 0 0 0 0 0 0 0 0 0 0 0 0 0 0 0 0
0 0 0 0 0 0 0 0 0 0 0 0 0 0 0 0 0 0 0 0 0 0 0 0 0 0 0 0 0 0 0 0 0 0 0 0 0 0 0 0 0 0 0 0
0 0 0 0 0 0 0 0 0 0 0 0 0 0 0 0 0 0 0 0 0 0 0 0 0 0 0 0 0 0 0 0 0 0 0 0 0 0 0 0 0 0 0 0
0 0 0 0 0 0 0 0 0 0 0 0 0 0 0 0 0 0 0 0 0 0 0 0 0 0 0 0 0 0 0 0 0 0 0 0 0 0 0 0 0 0 0 0
0 0 0 0 0 0 0 0 0 0 0 0 0 0 0 0 0 0 0 0 0 0 0 0 0 0 0 0 0 0 0 0 0 0 0 0 0 0 0 0 0 0 0 0
0 0 0 0 0 0 0 0 0 0 0 0 0 0 0 0 0 0 0 0 0 0 0 0 0 0 0 0 0 0 0 0 0 0 0 0 0 0 0 0 0 0 0 0
Wind_Speed
8 5 5 8 11 13 15 13 12 13 13 19 17 14 10 7 8 12 14 15 15 13 11 10 9 7 6 5 4 5 6 7 7 8 9 9 10 10 11 11 12 12 13 14
6 4 6 10 15 17 17 15 17 19 22 20 15 8 7 8 10 14 16 17 16 14 12 11 10 8 6 5 4 4 6 7 7 8 9 9 10 10 11 11 11 12 13 14
5 1 6 13 13 18 12 14 13 15 14 8 7 9 10 9 13 16 16 17 16 15 13 11 10 8 7 5 4 5 6 7 7 8 9 9 10 10 10 11 11 11 12 13
5 4 10 4 3 10 11 11 16 15 16 14 12 10 9 10 13 15 15 16 16 14 12 11 9 8 6 5 5 5 6 7 7 7 9 9 10 10 10 10 10 10 11 12
3 5 11 6 6 8 9 10 13 17 19 15 2 7 10 12 14 14 15 15 14 13 12 11 10 9 7 6 5 6 7 7 7 7 9 10 10 10 10 10 10 11 11 12
4 5 9 4 5 5 3 9 7 13 15 8 3 6 6 5 11 12 12 12 12 12 12 11 10 9 8 7 7 7 7 7 7 8 9 10 10 11 10 10 10 11 11 11
8 8 13 2 7 8 5 5 4 10 11 9 11 10 1 5 9 11 13 13 13 13 12 11 11 10 9 8 8 7 6 7 8 8 9 9 10 9 10 10 10 10 11 11
8 8 13 8 12 13 9 1 3 7 9 11 14 8 5 7 10 13 14 14 15 13 11 10 10 10 10 9 7 6 6 7 8 8 7 7 9 10 9 9 10 10 10 11
14 12 2 13 13 10 3 5 7 7 9 11 12 11 10 10 12 14 15 15 14 13 12 10 11 11 11 8 6 6 6 7 7 7 7 7 8 9 8 7 7 8 9 9
10 15 10 12 15 14 13 15 15 11 9 10 13 12 12 11 13 14 15 15 14 14 13 12 12 12 10 7 7 6 6 6 6 6 7 6 6 6 6 6 7 8 9 9
12 11 9 13 18 20 18 17 17 16 14 14 14 14 14 13 15 15 15 14 14 14 14 14 13 12 11 9 8 7 6 5 5 5 6 6 5 5 6 6 7 9 8 9
15 9 10 11 7 9 13 16 16 14 14 15 16 15 14 14 14 15 15 15 15 15 14 14 13 12 11 10 9 8 6 5 4 4 4 5 5 5 4 6 10 11 11 11
20 9 10 15 10 9 13 15 13 14 15 14 14 15 15 13 13 14 15 17 18 18 16 14 13 13 12 11 10 9 7 5 3 4 4 4 5 6 6 5 6 7 10 12
17 10 11 14 17 18 16 15 12 12 13 13 12 13 13 13 14 17 19 19 18 16 15 14 14 13 12 12 11 10 8 6 5 4 3 4 4 4 5 6 7 6 7 10
18 16 18 19 20 17 12 10 12 14 13 13 13 14 16 17 18 19 17 16 16 16 16 15 15 14 13 12 12 10 8 5 5 4 3 3 3 4 4 5 6 6 6 7
13 14 18 21 25 25 21 19 19 20 16 14 15 17 17 17 15 15 17 18 20 20 18 17 16 14 14 13 12 9 8 9 7 4 4 3 3 3 3 4 5 5 6 6
13 17 19 22 27 28 24 21 21 19 14 15 16 15 15 15 15 16 18 19 18 18 17 17 16 14 14 14 12 8 7 7 10 6 4 4 3 3 3 3 4 5 5 6
25 27 25 22 22 24 22 18 15 15 13 12 12 14 18 20 21 20 18 18 16 15 16 16 15 15 15 14 12 8 7 7 6 6 5 4 4 3 3 3 4 5 5 5
22 22 23 23 23 21 19 15 10 9 9 11 15 19 20 20 18 17 18 19 20 20 17 16 21 17 15 16 14 9 8 8 7 6 5 6 5 4 3 3 3 4 4 5
16 17 18 18 17 14 14 13 11 11 11 14 16 17 18 18 17 17 19 19 18 14 15 18 19 15 15 16 17 9 10 9 8 7 6 5 5 4 3 3 3 3 4 4
14 13 13 15 17 16 15 15 13 13 12 15 18 19 18 16 17 18 18 17 15 14 18 24 17 14 14 15 18 10 10 9 9 8 7 6 5 5 4 3 3 3 3 4
11 12 14 15 16 17 12 10 11 12 12 14 16 14 14 16 18 18 18 12 15 21 16 15 14 18 19 19 13 11 11 10 9 8 7 7 6 5 5 4 3 3 3 4
14 13 14 13 13 13 12 9 9 10 11 13 15 16 17 15 15 16 15 12 13 24 18 14 19 26 28 17 12 12 12 11 10 9 8 7 7 6 5 5 4 3 3 3
14 13 11 10 9 9 11 10 7 7 9 10 11 13 13 12 12 12 8 16 22 25 16 19 28 30 28 13 12 12 12 11 10 9 9 8 7 6 5 5 4 4 4 4
11 10 9 9 9 9 8 7 6 6 7 7 9 11 11 10 10 11 10 16 24 24 15 20 29 30 20 13 13 12 12 11 10 10 9 8 8 7 6 6 5 4 4 4
10 10 9 8 8 8 7 5 5 5 5 6 6 7 9 8 8 9 10 14 20 22 16 14 19 22 15 14 13 13 11 12 12 11 10 9 9 8 7 6 7 5 4 4
10 10 8 9 8 7 6 6 6 6 6 7 7 7 8 9 9 10 12 12 14 15 13 13 14 15 15 14 13 12 11 10 10 10 10 9 8 8 7 8 6 5 4 4
Wind_Direction
267 266 245 246 225 200 211 226 242 255 262 278 295 305 297 263 212 197 193 192 192 192 191 192 196 202 212 231 252 274 289 297 305 311 314 313 315 317 319 322 323 324 324 324
266 240 232 255 239 222 227 236 247 263 274 273 286 287 265 237 207 203 200 197 195 193 191 193 196 198 202 221 244 270 280 286 294 303 308 310 313 316 317 320 321 323 323 322
265 200 282 264 230 198 203 214 214 231 249 272 266 260 261 241 212 211 204 197 194 193 192 191 190 188 194 208 228 252 266 276 287 295 301 305 309 311 316 318 318 318 317 317
281 291 247 255 109 182 207 229 219 241 262 270 274 291 276 245 221 213 202 195 193 190 186 182 175 174 184 199 228 249 264 270 276 285 294 301 307 310 315 315 314 312 314 315
238 260 276 266 179 178 204 263 223 229 252 265 319 299 263 224 216 211 198 191 187 182 175 168 169 171 175 203 224 242 255 264 273 280 288 297 303 309 314 313 310 309 313 317
208 233 249 258 139 157 165 273 226 210 238 237 186 273 296 165 194 196 186 179 172 166 165 167 171 169 182 207 221 236 249 265 276 282 288 295 302 308 311 311 307 311 313 316
216 239 264 240 135 154 196 265 196 203 223 196 206 232 280 157 181 182 176 170 166 164 170 173 167 171 193 211 224 234 251 269 278 284 290 296 299 304 307 308 308 311 313 317
184 209 250 158 155 198 227 255 209 216 218 214 227 232 205 192 183 177 174 172 170 170 173 168 169 179 200 215 220 225 247 266 278 287 292 292 300 305 309 311 311 314 317 320
195 215 259 171 204 225 270 254 241 229 228 222 232 230 214 201 190 185 181 176 175 174 170 172 181 191 205 209 203 217 244 264 280 289 291 295 302 308 313 318 316 317 317 320
238 255 244 226 242 252 245 249 259 251 240 221 226 228 211 199 190 187 185 180 176 176 180 185 189 198 208 199 196 216 243 265 281 289 296 303 305 306 313 315 316 317 324 327
243 260 288 255 234 242 250 252 256 253 242 233 229 226 210 200 193 188 184 180 180 185 188 190 188 196 199 197 198 214 236 257 275 285 295 301 306 309 310 308 315 322 326 326
243 225 219 260 236 222 236 246 246 244 243 230 222 223 208 202 193 186 183 179 183 189 192 190 188 193 192 191 195 207 224 243 264 283 295 306 312 312 302 304 321 330 331 332
254 254 244 270 274 245 246 254 246 235 235 233 220 215 206 198 188 184 183 184 188 190 191 188 188 191 189 186 191 201 214 227 247 266 287 303 313 318 323 323 322 332 341 340
246 255 268 261 260 262 255 252 250 244 239 230 216 205 200 194 187 189 191 191 189 187 188 188 189 192 185 183 188 198 207 218 233 249 267 282 295 306 312 320 326 334 341 343
237 225 238 256 266 266 255 248 247 246 235 224 209 200 195 193 194 196 191 184 182 185 188 188 192 192 180 181 187 193 198 205 213 231 245 263 278 292 302 311 316 323 330 340
238 230 238 251 260 263 259 251 248 251 239 220 209 205 202 200 196 190 184 180 182 188 189 189 193 187 176 180 184 189 197 205 211 219 228 241 256 278 300 312 317 322 331 337
242 245 243 248 256 261 259 252 248 250 239 219 212 202 195 194 194 192 189 188 190 190 186 188 188 178 176 180 182 184 186 194 205 212 219 228 241 263 288 302 311 317 324 327
246 251 254 254 259 265 266 260 252 245 235 221 200 193 194 197 198 193 186 183 187 191 191 188 180 173 177 179 181 180 180 182 189 200 206 216 228 243 267 286 302 312 319 324
252 256 261 263 265 269 273 274 266 247 225 199 197 202 203 204 200 188 178 178 185 192 191 183 179 174 177 181 177 179 180 182 186 194 201 211 220 228 245 270 293 308 315 321
264 266 269 272 275 274 274 274 266 249 223 204 203 206 207 203 193 183 182 189 195 189 172 173 176 176 179 181 177 178 181 185 188 190 195 203 211 218 230 252 280 297 309 317
274 279 280 279 280 279 274 274 267 254 226 204 205 208 206 196 187 182 184 196 197 178 168 174 175 175 177 177 179 178 181 185 189 192 194 199 203 211 221 234 255 277 295 308
283 283 283 285 288 289 286 273 258 248 231 217 212 205 197 192 189 190 197 195 174 173 168 174 177 177 176 175 178 178 182 185 188 190 194 196 199 205 211 221 238 258 278 295
293 290 288 286 284 287 289 278 258 246 236 223 213 204 199 194 189 188 194 192 169 174 172 177 179 178 176 175 177 178 182 185 188 191 193 194 197 201 206 213 225 242 264 281
292 289 286 285 285 285 286 284 265 251 243 232 219 207 198 193 195 201 189 176 175 176 177 178 178 179 175 175 176 179 182 186 188 189 190 190 192 196 201 207 217 229 246 266
285 283 285 286 285 282 280 283 275 258 245 239 226 208 204 201 193 189 181 174 175 173 174 180 180 179 175 174 177 180 182 185 184 184 186 187 190 193 197 202 209 219 233 251
279 282 284 275 274 278 280 272 260 247 233 234 226 208 204 201 189 178 176 177 176 174 170 173 177 180 178 176 179 181 181 183 187 188 188 187 190 191 194 198 206 213 224 240
274 276 277 280 274 259 253 245 245 240 222 219 221 207 199 195 187 179 176 175 175 174 171 173 176 179 177 176 178 179 178 179 182 182 182 186 186 190 190 193 198 203 212 228